Location: Bytów
(54.1734°N, 17.4894°E)
Time: 14:01:36
(UTC+02:00)

ISS - Visible Passes

Search period start: 22 October 2018 00:00
Search period end: 31 October 2018 23:00
Orbit: 402 x 408 km, 51.6° (Epoch: 22 October)

Date Brightness Start Highest point End Pass type
(mag) Time Alt. Az. Time Alt. Az. Time Alt. Az.
28 Oct -1.4 05:59:52 10° SSW 06:02:28 22° SSE 06:05:04 10° E visible
29 Oct -1.0 05:08:36 10° S 05:10:37 15° SE 05:12:40 10° ESE visible
30 Oct -0.8 04:18:18 10° SSE 04:18:51 10° SE 04:19:23 10° SE visible
30 Oct -2.2 05:51:37 10° SW 05:54:36 32° SSE 05:57:35 10° E visible
31 Oct -1.8 05:00:31 13° SSW 05:02:40 24° SSE 05:05:25 10° E visible
